LA1ZDA-2 Weather Reports


Display with metric or nautical units.
time (UTC)temp
F
wind
direction
speed
MPH
gust
MPH
rain 1hr
in
rain 24hr
in
rain mn
in
humidity
%
barometer
mb
20220520210856 41 225 0.0 0.0 0.00 0.00 0.00
20220520210339 41 270 0.0 0.0 0.00 0.00 0.00
20220520205822 41 270 0.0 0.0 0.00 0.00 0.00
20220520205305 41 315 0.0 0.0 0.00 0.00 0.00
20220520204748 41 315 0.0 0.0 0.00 0.00 0.00
20220520204231 41 247 0.0 0.0 0.00 0.00 0.00
20220520203714 41 247 0.0 0.0 0.00 0.00 0.00
20220520203157 41 247 0.0 1.0 0.00 0.00 0.00
20220520202640 41 184 0.0 1.0 0.00 0.00 0.00
20220520202123 42 202 0.0 0.0 0.00 0.00 0.00
20220520201606 42 202 0.0 1.0 0.00 0.00 0.00
20220520201049 43 337 1.0 2.0 0.00 0.00 0.00
20220520200532 43 337 2.0 4.0 0.00 0.00 0.00
20220520200015 43 180 2.0 3.0 0.00 0.00 0.00
20220520195458 43 15 2.0 3.0 0.00 0.00 0.00
20220520194941 43 337 1.0 2.0 0.00 0.00 0.00
20220520194424 43 337 1.0 2.0 0.00 0.00 0.00
20220520193907 43 337 1.0 3.0 0.00 0.00 0.00
20220520193351 44 337 1.0 2.0 0.00 0.00 0.00
20220520192833 44 337 1.0 2.0 0.00 0.00 0.00
20220520192317 45 337 1.0 3.0 0.00 0.00 0.00
20220520191759 45 337 1.0 2.0 0.00 0.00 0.00
20220520191243 45 337 1.0 3.0 0.00 0.00 0.00
20220520190725 45 337 3.0 4.0 0.00 0.00 0.00
20220520185651 46 225 1.0 3.0 0.00 0.00 0.00
20220520185135 46 337 2.0 3.0 0.00 0.00 0.00
20220520184617 46 337 2.0 4.0 0.00 0.00 0.00
20220520184101 46 337 2.0 4.0 0.00 0.00 0.00
20220520183544 47 337 2.0 5.0 0.00 0.00 0.00
20220520183027 47 337 2.0 5.0 0.00 0.00 0.00
20220520182510 48 337 3.0 6.0 0.00 0.00 0.00
20220520181953 49 337 3.0 4.0 0.00 0.00 0.00
20220520180919 48 337 3.0 5.0 0.00 0.00 0.00
20220520180402 48 337 3.0 5.0 0.00 0.00 0.00
20220520175845 48 337 3.0 4.0 0.00 0.00 0.00
20220520175328 49 337 2.0 4.0 0.00 0.00 0.00
20220520174812 49 337 2.0 4.0 0.00 0.00 0.00
20220520173737 49 337 3.0 5.0 0.00 0.00 0.00
20220520173220 49 337 2.0 4.0 0.00 0.00 0.00
20220520172703 51 337 3.0 5.0 0.00 0.00 0.00
20220520172146 50 337 2.0 5.0 0.00 0.00 0.00
20220520171629 49 337 1.0 3.0 0.00 0.00 0.00
20220520164447 50 337 4.0 5.0 0.00 0.00 0.00
20220520163930 50 337 4.0 5.0 0.00 0.00 0.00
20220520163413 50 337 4.0 5.0 0.00 0.00 0.00
20220520162856 51 337 3.0 8.0 0.00 0.00 0.00
20220520162339 52 337 5.0 7.0 0.00 0.00 0.00
20220520161822 53 337 2.0 7.0 0.00 0.00 0.00
20220520161305 54 337 4.0 9.0 0.00 0.00 0.00
20220520160748 56 337 4.0 8.0 0.00 0.00 0.00
20220520160232 56 337 4.0 7.0 0.00 0.00 0.00
20220520155714 55 337 1.0 8.0 0.00 0.00 0.00
20220520155158 55 337 4.0 8.0 0.00 0.00 0.00
20220520154640 55 337 1.0 7.0 0.00 0.00 0.00
20220520154124 55 337 6.0 8.0 0.00 0.00 0.00
20220520153606 54 337 2.0 10.0 0.00 0.00 0.00
20220520153050 53 67 7.0 10.0 0.00 0.00 0.00
20220520152532 53 337 7.0 11.0 0.00 0.00 0.00
20220520152016 55 337 6.0 10.0 0.00 0.00 0.00
20220520151459 55 337 4.0 10.0 0.00 0.00 0.00
20220520150942 55 337 7.0 12.0 0.00 0.00 0.00
20220520150425 54 337 9.0 13.0 0.00 0.00 0.00
20220520145908 54 337 7.0 12.0 0.00 0.00 0.00
20220520145351 53 337 9.0 12.0 0.00 0.00 0.00
20220520144834 54 337 10.0 11.0 0.00 0.00 0.00
20220520144317 56 337 6.0 11.0 0.00 0.00 0.00
20220520143800 55 337 6.0 9.0 0.00 0.00 0.00
20220520143243 54 337 5.0 8.0 0.00 0.00 0.00
20220520142726 53 337 5.0 9.0 0.00 0.00 0.00
20220520142209 54 337 5.0 8.0 0.00 0.00 0.00
20220520141652 55 337 5.0 8.0 0.00 0.00 0.00
20220520141135 56 337 5.0 8.0 0.00 0.00 0.00
20220520140618 56 337 5.0 9.0 0.00 0.00 0.00
20220520133436 57 337 6.0 10.0 0.00 0.00 0.00
20220520132919 58 337 5.0 8.0 0.00 0.00 0.00
20220520132402 58 337 4.0 9.0 0.00 0.00 0.00
20220520131845 58 337 6.0 8.0 0.00 0.00 0.00
20220520131328 58 337 4.0 7.0 0.00 0.00 0.00
20220520130811 58 337 3.0 10.0 0.00 0.00 0.00
20220520125737 58 337 6.0 8.0 0.00 0.00 0.00
20220520125221 58 337 1.0 8.0 0.00 0.00 0.00
20220520124703 57 337 5.0 8.0 0.00 0.00 0.00
20220520124147 57 337 6.0 10.0 0.00 0.00 0.00
20220520123629 57 337 5.0 10.0 0.00 0.00 0.00
20220520123113 58 337 6.0 8.0 0.00 0.00 0.00
20220520122555 59 337 7.0 8.0 0.00 0.00 0.00
20220520122039 59 202 6.0 8.0 0.00 0.00 0.00
20220520121005 61 337 4.0 13.0 0.00 0.00 0.00
20220520120447 62 155 3.0 4.0 0.00 0.00 0.00
20220520115931 63 135 3.0 7.0 0.00 0.00 0.00
20220520115413 65 110 3.0 4.0 0.00 0.00 0.00
20220520114857 64 220 1.0 3.0 0.00 0.00 0.00
20220520114340 62 231 0.0 3.0 0.00 0.00 0.00
20220520113823 62 208 2.0 4.0 0.00 0.00 0.00
20220520113306 60 186 2.0 6.0 0.00 0.00 0.00
20220520112749 59 108 2.0 7.0 0.00 0.00 0.00
20220520112232 59 337 2.0 5.0 0.00 0.00 0.00
20220520111715 59 112 2.0 4.0 0.00 0.00 0.00
20220520111158 59 117 4.0 7.0 0.00 0.00 0.00
20220520110124 60 118 1.0 3.0 0.00 0.00 0.00
20220520105607 60 107 3.0 4.0 0.00 0.00 0.00
20220520105050 59 128 2.0 3.0 0.00 0.00 0.00
20220520104533 59 337 3.0 4.0 0.00 0.00 0.00
20220520104016 59 90 2.0 4.0 0.00 0.00 0.00
20220520103459 59 337 2.0 3.0 0.00 0.00 0.00
20220520102425 59 108 5.0 6.0 0.00 0.00 0.00
20220520101908 59 136 2.0 5.0 0.00 0.00 0.00
20220520101351 60 151 2.0 3.0 0.00 0.00 0.00
20220520100834 59 184 2.0 3.0 0.00 0.00 0.00
20220520100317 59 151 3.0 4.0 0.00 0.00 0.00
20220520095800 58 108 0.0 3.0 0.00 0.00 0.00
20220520095243 58 140 2.0 3.0 0.00 0.00 0.00
20220520094726 58 225 2.0 3.0 0.00 0.00 0.00
20220520094209 58 205 2.0 3.0 0.00 0.00 0.00
20220520093652 57 182 1.0 3.0 0.00 0.00 0.00
20220520092618 57 99 3.0 4.0 0.00 0.00 0.00
20220520092102 56 135 1.0 2.0 0.00 0.00 0.00
20220520091544 55 106 1.0 3.0 0.00 0.00 0.00
20220520091028 54 94 2.0 3.0 0.00 0.00 0.00
20220520090510 54 337 2.0 4.0 0.00 0.00 0.00
20220520085954 54 90 2.0 3.0 0.00 0.00 0.00
20220520085436 53 90 2.0 3.0 0.00 0.00 0.00
20220520084920 53 90 2.0 3.0 0.00 0.00 0.00
20220520084402 53 90 2.0 3.0 0.00 0.00 0.00
20220520083846 53 90 2.0 2.0 0.00 0.00 0.00
20220520083328 52 90 1.0 3.0 0.00 0.00 0.00
20220520082812 51 78 2.0 2.0 0.00 0.00 0.00
20220520082255 51 337 2.0 3.0 0.00 0.00 0.00
20220520081738 50 92 2.0 3.0 0.00 0.00 0.00
20220520081221 50 90 2.0 4.0 0.00 0.00 0.00
20220520080704 50 90 3.0 4.0 0.00 0.00 0.00
20220520080147 49 90 2.0 4.0 0.00 0.00 0.00
20220520075630 49 90 2.0 4.0 0.00 0.00 0.00
20220520075113 48 337 2.0 3.0 0.00 0.00 0.00
20220520074039 48 337 3.0 5.0 0.00 0.00 0.00
20220520073522 47 337 3.0 5.0 0.00 0.00 0.00
20220520073005 47 337 2.0 5.0 0.00 0.00 0.00
20220520072448 46 337 3.0 4.0 0.00 0.00 0.00
20220520071931 46 337 3.0 5.0 0.00 0.00 0.00
20220520071414 46 337 2.0 5.0 0.00 0.00 0.00
20220520070857 45 337 3.0 4.0 0.00 0.00 0.00